{"data":{"norad_id":54869,"intl_designator":"2022-177BB","name":"STARLINK-5402","alt_names":[],"object_type":"PAYLOAD","status":"ACTIVE","operator":null,"country":"US","launch_date":"2022-12-28","launch_site_code":"AFETR","launch_vehicle":null,"mission":null,"orbit_class":"UNKNOWN","rcs_meters":null,"size_class":null,"mass_kg":null,"dimensions":null,"purposes":["comms"],"wikipedia_slug":null,"has_3d_model":false,"image_url":null,"decayed_at":null,"tle_current":{"epoch":"2026-05-25T02:45:00.067968Z","epoch_age_seconds":68234,"freshness":"FRESH","line1":"1 54869U 22177BB  26145.11458412  .00000092  00000+0  12872-4 0  9999","line2":"2 54869  43.0061  50.4111 0001296 268.2368  91.8336 15.27572741188775","mean_motion":15.27572741,"eccentricity":0.0001296,"inclination_deg":43.0061,"raan_deg":50.4111,"arg_perigee_deg":268.2368,"mean_anomaly_deg":91.8336,"bstar":1.2872e-5,"rev_number":18877,"period_min":94.267196667658,"perigee_km":482.18161964809,"apogee_km":483.96004471819,"semimajor_km":6861.2078321831,"source":"CELESTRAK","updated_at":"2026-05-25T13:38:17.729593Z"}}}